Flag for Jersey Weather past 2 weeks in Saint Helier, Jersey

Now
61 °F

Passing clouds.


Feels Like: 61 °F
Forecast: 52 / 61 °F
Wind: 10 mph from North

Location: Jersey Airport

Current Time: May 26, 2015 at 11:39:29 AM

Latest Report: May 26, 2015 at 11:20 AM


Visibility: N/A

Pressure: 30.27 "Hg

Humidity: 72%

Dew point: 52 °F

Location of Saint HelierLocation

Historic Weather in Saint Helier — Graph

°F

Saint Helier temperature yesterday

Maximum temperature yesterday: 61 °F (at 12:50 PM)
Minimum temperature yesterday: 50 °F (at 6:20 AM)
Average temperature yesterday: 55 °F

Past Weeks' High & Low Weather Summary

 TemperatureHumidityPressure
High66 °F (May 23, 2:20 PM)100% (May 11, 8:20 PM)30.42 "Hg (May 11, 8:20 PM)
Low45 °F (May 13, 12:50 AM)59% (May 13, 12:50 PM)29.80 "Hg (May 14, 6:50 AM)
Average54 °F84%30.15 "Hg
* Reported May 11 10:20 AM — May 26 10:20 AM, Saint Helier, Weather by CustomWeather, © 2015

Note: Actual official high and low records may vary slightly from our data, if they occured in-between our weather recording intervals... More about our weather records

Advertising

Saint Helier weather history for previous 24 hours

 ConditionsComfort  
Time TempWeatherWind HumidityBarometerVisibility
10:20 AM
Tue, May 26
61 °FPassing clouds.9 mph72%30.27 "HgN/A
9:50 AM61 °FPassing clouds.8 mph72%30.27 "HgN/A
9:20 AM61 °FPassing clouds.6 mph77%30.24 "HgN/A
8:50 AM59 °FPassing clouds.7 mph82%30.24 "HgN/A
8:20 AM57 °FPassing clouds.7 mph88%30.24 "HgN/A
7:50 AM55 °FPassing clouds.8 mph94%30.24 "HgN/A
7:20 AM54 °FPassing clouds.8 mph94%30.21 "HgN/A
6:50 AM54 °FPassing clouds.6 mph94%30.21 "HgN/A
6:20 AM52 °FPassing clouds.6 mph100%30.21 "HgN/A
5:50 AM52 °FPassing clouds.6 mph94%30.21 "HgN/A
5:20 AM50 °FPassing clouds.No wind100%30.21 "HgN/A
4:50 AM52 °FPassing clouds.No wind94%30.18 "HgN/A
4:20 AM52 °FPassing clouds.5 mph94%30.18 "HgN/A
3:50 AM52 °FPassing clouds.10 mph100%30.18 "HgN/A
9:20 PM
Mon, May 25
52 °FScattered clouds.10 mph100%30.15 "HgN/A
8:50 PM54 °FPartly sunny.8 mph94%30.15 "HgN/A
8:20 PM54 °FPartly sunny.7 mph94%30.15 "HgN/A
7:50 PM54 °FPartly sunny.8 mph94%30.15 "HgN/A
7:20 PM54 °FPartly sunny.8 mph94%30.15 "HgN/A
6:50 PM55 °FPartly sunny.12 mph82%30.15 "HgN/A
6:20 PM55 °FPartly sunny.12 mph82%30.15 "HgN/A
5:50 PM55 °FPartly sunny.12 mph82%30.15 "HgN/A
5:20 PM55 °FPartly sunny.15 mph88%30.15 "HgN/A
4:50 PM57 °FPassing clouds.16 mph82%30.15 "HgN/A
4:20 PM59 °FPassing clouds.16 mph77%30.15 "HgN/A
3:50 PM57 °FScattered clouds.14 mph82%30.15 "HgN/A
3:20 PM59 °FPassing clouds.13 mph77%30.15 "HgN/A
2:50 PM57 °FPassing clouds.13 mph77%30.15 "HgN/A
2:20 PM59 °FPassing clouds.9 mph63%30.15 "HgN/A
1:50 PM59 °FPassing clouds.13 mph68%30.15 "HgN/A
1:20 PM57 °FPassing clouds.12 mph77%30.15 "HgN/A
12:50 PM61 °FPassing clouds.14 mph63%30.15 "HgN/A
12:20 PM59 °FPassing clouds.7 mph63%30.15 "HgN/A
11:50 AM57 °FPassing clouds.10 mph77%30.15 "HgN/A
11:20 AM57 °FPassing clouds.9 mph77%30.15 "HgN/A
Weather by CustomWeather, © 2015

See weather overviewHow to use our weather pages